Home   Weather   Darlington   Past weeks

Flag for United Kingdom Past Weather in Darlington, England, United Kingdom — Yesterday and Last 2 Weeks

Now
70 °F

Scattered clouds.


Feels Like: 70 °F
Forecast: 51 / 63 °F
Wind: 21 mph from Southwest

Location: Tees-Side

Current Time: Sep 28, 2016 at 6:17:40 PM

Latest Report: Sep 28, 2016 at 5:20 PM


Visibility: N/A

Pressure: 29.92 "Hg

Humidity: 73%

Dew Point: 61 °F

Location of DarlingtonLocation

Past Weather in Darlington — Graph

°F

Darlington Temperature Yesterday

Maximum temperature yesterday: 66 °F (at 2:50 PM)
Minimum temperature yesterday: 54 °F (at 6:50 AM)
Average temperature yesterday: 60 °F

High & Low Weather Summary for the Past Weeks

 TemperatureHumidityPressure
High75 °F (Sep 13, 5:20 PM)100% (Sep 15, 9:50 AM)30.21 "Hg (Sep 15, 9:50 AM)
Low43 °F (Sep 18, 6:20 AM)49% (Sep 22, 2:20 PM)29.65 "Hg (Sep 25, 5:50 AM)
Average59 °F78%30.02 "Hg
* Reported Sep 13 5:20 PM — Sep 28 5:20 PM, Darlington, Weather by CustomWeather, © 2016

Note: Actual official high and low records may vary slightly from our data, if they occured in-between our weather recording intervals... More about our weather records

Advertising

Darlington Weather History for the Previous 24 Hours

Scroll right to see more
 ConditionsComfort  
Time TempWeatherWind HumidityBarometerVisibility
5:20 PM
Wed, Sep 28
70 °FScattered clouds.21 mph73%29.92 "HgN/A
4:50 PM70 °FPassing clouds.22 mph73%29.95 "HgN/A
4:20 PM70 °FPassing clouds.20 mph73%29.95 "HgN/A
3:50 PM70 °FPassing clouds.28 mph73%29.95 "HgN/A
3:20 PM70 °FPassing clouds.29 mph73%29.98 "HgN/A
2:50 PM68 °FPassing clouds.21 mph73%29.98 "HgN/A
2:20 PM70 °FPassing clouds.21 mph69%30.01 "HgN/A
1:50 PM66 °FPassing clouds.21 mph73%30.01 "HgN/A
1:20 PM68 °FPassing clouds.18 mph69%30.01 "HgN/A
12:50 PM66 °FPassing clouds.15 mph73%30.04 "HgN/A
12:20 PM64 °FPassing clouds.9 mph78%30.04 "HgN/A
11:50 AM63 °FPassing clouds.9 mph77%30.07 "HgN/A
11:20 AM63 °FScattered clouds.20 mph77%30.07 "HgN/A
10:50 AM63 °FPassing clouds.17 mph73%30.07 "HgN/A
10:20 AM63 °FPassing clouds.15 mph68%30.07 "HgN/A
9:50 AM63 °FPassing clouds.12 mph68%30.07 "HgN/A
9:20 AM59 °FPassing clouds.6 mph77%30.07 "HgN/A
8:50 AM59 °FScattered clouds.5 mph77%30.07 "HgN/A
8:20 AM57 °FPassing clouds.6 mph77%30.07 "HgN/A
7:50 AM57 °FPassing clouds.8 mph77%30.07 "HgN/A
7:20 AM57 °FScattered clouds.7 mph77%30.07 "HgN/A
6:50 AM57 °FPassing clouds.7 mph77%30.07 "HgN/A
6:20 AM57 °FPassing clouds.7 mph72%30.07 "HgN/A
5:50 AM57 °FPassing clouds.10 mph72%30.04 "HgN/A
9:20 PM
Tue, Sep 27
59 °FPassing clouds.18 mph72%30.07 "HgN/A
8:50 PM59 °FPassing clouds.16 mph72%30.07 "HgN/A
8:20 PM59 °FPassing clouds.15 mph72%30.04 "HgN/A
7:50 PM59 °FPassing clouds.12 mph72%30.07 "HgN/A
7:20 PM59 °FPassing clouds.7 mph72%30.07 "HgN/A
6:50 PM61 °FScattered showers. Passing clouds.9 mph68%30.07 "HgN/A
6:20 PM61 °FScattered clouds.14 mph68%30.07 "HgN/A
Weather by CustomWeather, © 2016

See weather overviewHow to use our weather pages